sat.trackr.live / text

‹ back to catalog

STARLINK-32321

NORAD 61065 · 2024-164R

PAYLOAD ACTIVE UNKNOWN

§ Identity

Operator
Country
US
Launch date
2024-09-13
Launch site
AFWTR
Launch vehicle
Mass (kg)
RCS (m²)

Purposes: comms

External: N2YO · Heavens-Above · Gunter

§ Orbital elements

Epoch: 2026-05-25T03:48:27.709056Z

Period
94.11 min
Inclination
53.1610°
Eccentricity
0.0001205
Mean motion
15.30195886 rev/d
Perigee alt
474.4 km
Apogee alt
476.1 km
Semi-major
6,853.4 km
B*
1.3464e-5
RAAN
96.0481°
Arg perigee
86.0689°
Mean anomaly
274.0450°
Rev number
9,518

§ Raw data

STARLINK-323211 61065U 24164R   26145.15865404  .00000040  00000+0  13464-4 0  99912 61065  53.1610  96.0481 0001205  86.0689 274.0450 15.30195886 95180

JSON: /api/v1/satellites/61065 · /tle

For live sub-satellite position, see the globe view (requires WebGL).

§ Visibility from observer

Set your observer location to see the next 7 days of passes ≥ 10°. The values pass through the URL so the page stays shareable.

No JS? Fill the form by hand. The geolocation button needs JavaScript.